{"data":{"norad_id":65089,"epoch":"2026-05-24T23:03:45.108000Z","epoch_age_seconds":68484,"freshness":"FRESH","line1":"1 65089U 25167M   26144.96093875  .00006560  00000+0  23345-3 0  9999","line2":"2 65089  53.1601  32.6518 0001198  49.3230 310.7875 15.30196058 45155","mean_motion":15.30196058,"eccentricity":0.0001198,"inclination_deg":53.1601,"raan_deg":32.6518,"arg_perigee_deg":49.323,"mean_anomaly_deg":310.7875,"bstar":0.00023345,"rev_number":4515,"period_min":94.105588135034,"perigee_km":474.40580655806,"apogee_km":476.04787253402,"semimajor_km":6853.363839546,"source":"CELESTRAK","updated_at":"2026-05-25T13:38:20.684414Z"}}